GW3041 Weather Reports


time (UTC)temp
C
wind
direction
speed
KPH
gust
KPH
rain 1hr
cm
rain 24hr
cm
rain mn
cm
humidity
%
barometer
mb
20260506013047 11 154 0.0 0.0 0.00 1.40 0.05 95 1009.7
20260506011542 11 154 0.0 0.0 0.00 1.40 0.05 95 1009.9
20260506010034 11 154 0.0 3.2 0.00 1.40 0.05 95 1010.2
20260506004538 11 154 0.0 3.2 0.00 1.40 0.05 95 1010.1
20260506003025 11 154 0.0 0.0 0.00 1.40 0.05 95 1010.2
20260506001517 11 154 0.0 0.0 0.05 1.40 0.05 95 1010.5
20260506000018 11 154 1.6 3.2 0.05 1.40 0.05 95 1010.6
20260505234513 11 154 0.0 0.0 0.05 1.40 0.05 95 1010.5
20260505233105 11 154 0.0 3.2 0.05 1.40 0.05 95 1010.9
20260505231558 11 154 0.0 0.0 0.00 1.37 0.00 95 1011.0
20260505230104 11 154 0.0 0.0 0.00 1.37 0.00 95 1010.9
20260505224536 11 154 0.0 0.0 0.03 1.37 0.00 95 1010.9
20260505223036 11 154 0.0 0.0 0.05 1.37 0.00 95 1011.0
20260505221517 11 154 0.0 0.0 0.15 1.37 0.00 95 1011.2
20260505220023 11 154 0.0 0.0 0.15 1.37 1.37 94 1011.3
20260505214502 11 154 0.0 0.0 0.13 1.35 1.35 94 1011.4
20260505213102 11 154 0.0 0.0 0.10 1.27 1.27 94 1011.7
20260505211607 11 154 0.0 0.0 0.05 1.22 1.22 94 1011.7
20260505210052 11 154 0.0 0.0 0.08 1.22 1.22 94 1011.7
20260505204540 11 154 0.0 1.6 0.10 1.22 1.22 94 1011.8
20260505203037 11 154 0.0 1.6 0.08 1.17 1.17 94 1011.8
20260505201541 11 154 0.0 0.0 0.10 1.17 1.17 94 1011.8
20260505200014 11 154 0.0 0.0 0.15 1.14 1.14 94 1011.8
20260505194507 11 154 0.0 0.0 0.23 1.12 1.12 94 1011.7
20260505193101 11 154 0.0 0.0 0.20 1.09 1.09 94 1011.6
20260505191600 11 154 0.0 0.0 0.20 1.09 1.09 94 1011.5
20260505190100 11 154 0.0 0.0 0.18 1.02 1.02 93 1011.4
20260505184536 11 154 0.0 0.0 0.15 0.89 0.89 93 1011.4
20260505183044 11 154 0.0 1.6 0.23 0.89 0.89 93 1011.3
20260505181522 11 131 0.0 3.2 0.25 0.89 0.89 93 1011.2
20260505180028 11 156 0.0 0.0 0.23 0.84 0.84 93 1011.2
20260505174506 11 153 0.0 3.2 0.10 0.71 0.71 93 1011.3
20260505173104 11 153 0.0 3.2 0.05 0.66 0.66 93 1011.4
20260505171555 11 142 0.0 0.0 0.05 0.61 0.61 93 1011.3
20260505170056 11 295 0.0 0.0 0.05 0.61 0.61 93 1011.2
20260505164539 11 295 0.0 0.0 0.05 0.61 0.61 93 1011.3
20260505163032 11 295 0.0 0.0 0.05 0.61 0.61 93 1011.4
20260505161522 12 295 0.0 0.0 0.03 0.58 0.58 92 1011.4
20260505153111 12 152 0.0 3.2 0.00 0.56 0.56 91 1011.4
20260505151556 12 152 0.0 3.2 0.00 0.56 0.56 91 1011.5
20260505150107 12 154 0.0 1.6 0.00 0.56 0.56 91 1011.5
20260505124541 12 151 3.2 8.0 0.00 0.53 0.53 89 1012.1
20260505123047 12 144 4.8 8.0 0.03 0.53 0.53 89 1012.2
20260505121533 13 133 3.2 8.0 0.03 0.53 0.53 89 1012.2
20260505120028 13 135 4.8 9.7 0.03 0.53 0.53 89 1012.2
20260505114512 13 147 6.4 12.9 0.03 0.53 0.53 87 1012.3
20260505113008 13 138 4.8 14.5 0.00 0.51 0.51 87 1012.2
20260505111604 13 114 6.4 14.5 0.00 0.51 0.51 88 1012.2
20260505101539 12 151 4.8 11.3 0.00 0.51 0.51 91 1012.5
20260505100031 12 178 4.8 8.0 0.00 0.51 0.51 92 1012.4
20260505094521 12 135 4.8 11.3 0.03 0.51 0.51 92 1012.4
20260505093015 12 108 4.8 9.7 0.08 0.51 0.51 92 1012.5
20260505091506 12 166 6.4 8.0 0.15 0.51 0.51 92 1012.5
20260505090111 12 153 3.2 8.0 0.23 0.51 0.51 92 1012.4
20260505084558 11 121 3.2 9.7 0.33 0.51 0.51 92 1012.4
20260505083052 11 158 3.2 11.3 0.33 0.46 0.46 92 1012.5
20260505081547 11 129 4.8 8.0 0.30 0.38 0.38 92 1012.4
20260505080048 11 114 4.8 9.7 0.23 0.28 0.28 92 1012.5
20260505074522 11 147 3.2 8.0 0.15 0.18 0.18 92 1012.3
20260505073018 11 148 0.0 0.0 0.13 0.13 0.13 92 1012.3
20260505071510 11 148 0.0 0.0 0.08 0.08 0.08 91 1012.4
20260505070003 11 148 0.0 0.0 0.05 0.05 0.05 91 1012.3
20260505064559 12 148 0.0 0.0 0.03 0.03 0.03 90 1012.3
20260505063059 12 148 0.0 3.2 0.00 0.00 0.00 89 1012.2
20260505061546 12 148 0.0 1.6 0.00 0.00 0.00 89 1012.0
20260505060040 11 284 1.6 4.8 0.00 0.00 0.00 89 1011.9
20260505054533 11 317 0.0 0.0 0.00 0.00 0.00 87 1011.8
20260505053025 12 5 0.0 4.8 0.00 0.00 0.00 87 1011.5
20260505051523 12 35 0.0 3.2 0.00 0.00 0.00 85 1011.4
20260505041606 12 109 0.0 1.6 0.00 0.00 0.00 84 1011.0
20260505040056 12 109 0.0 1.6 0.00 0.00 0.00 83 1010.9
20260505034542 12 109 0.0 1.6 0.00 0.00 0.00 82 1010.9
20260505033042 12 109 0.0 1.6 0.00 0.00 0.00 82 1011.1
20260505031540 12 109 0.0 0.0 0.00 0.00 0.00 80 1011.3
20260505030027 12 109 0.0 3.2 0.00 0.00 0.00 80 1011.4
20260505024521 12 10 0.0 1.6 0.00 0.00 0.00 79 1011.7
20260505023013 12 319 0.0 3.2 0.00 0.00 0.00 79 1011.8
20260505021507 12 319 0.0 3.2 0.00 0.00 0.00 77 1012.0
20260505020104 12 319 0.0 3.2 0.00 0.00 0.00 75 1012.0
20260505014616 12 139 0.0 0.0 0.00 0.00 0.00 76 1012.1